START_TIME,STEP,MOV.,M35,t_acc.,PL05,t_acc.,PL06,t_acc.,PL07,t_acc.
1979-08-05 21:00:22.510 ,0,0,0.,4.8,2.,4.8,0.,4.8,0.,4.8
1979-08-05 21:00:27.310 ,0,0,0.,4.8,0.,4.8,1.,4.8,0.,4.8
1979-08-05 21:00:32.110 ,0,0,0.,4.8,2.,4.8,1.,4.8,0.,4.8
1979-08-05 21:00:36.910 ,0,0,0.,4.8,4.,4.8,0.,4.8,1.,4.8
1979-08-05 21:00:41.710 ,0,0,0.,4.8,4.,4.8,0.,4.8,0.,4.8
1979-08-05 21:00:46.510 ,0,0,0.,4.8,2.,4.8,0.,4.8,1.,4.8
1979-08-05 21:00:51.310 ,0,0,0.,4.8,1.,4.8,0.,4.8,0.,4.8
1979-08-05 21:00:56.110 ,0,0,0.,4.8,2.,4.8,1.,4.8,0.,4.8
1979-08-05 21:01:00.910 ,0,0,0.,4.8,1.,4.8,0.,4.8,0.,4.8
1979-08-05 21:01:05.710 ,0,0,0.,4.8,0.,4.8,1.,4.8,0.,4.8
1979-08-05 21:01:10.510 ,0,0,0.,4.8,0.,4.8,0.,4.8,0.,4.8
1979-08-05 21:01:15.310 ,0,0,0.,4.8,1.,4.8,0.,4.8,0.,4.8
1979-08-05 21:01:20.110 ,0,0,0.,4.8,2.,4.8,0.,4.8,0.,4.8
1979-08-05 21:01:24.910 ,0,0,0.,4.8,3.,4.8,1.,4.8,0.,4.8
1979-08-05 21:01:29.710 ,0,0,0.,4.8,4.,4.8,1.,4.8,0.,4.8
1979-08-05 21:01:34.510 ,1,0,0.,4.8,2.,4.8,0.,4.8,0.,4.8
1979-08-05 21:01:39.310 ,1,0,0.,4.8,2.,4.8,1.,4.8,0.,4.8
1979-08-05 21:01:44.110 ,1,0,0.,4.8,3.,4.8,1.,4.8,0.,4.8
1979-08-05 21:01:48.910 ,1,0,0.,4.8,1.,4.8,0.,4.8,0.,4.8
1979-08-05 21:01:53.710 ,1,0,0.,4.8,3.,4.8,0.,4.8,1.,4.8
1979-08-05 21:01:58.510 ,1,0,0.,4.8,3.,4.8,0.,4.8,0.,4.8
1979-08-05 21:02:03.310 ,1,0,0.,4.8,4.,4.8,0.,4.8,0.,4.8
1979-08-05 21:02:08.110 ,1,0,0.,4.8,1.,4.8,0.,4.8,0.,4.8
1979-08-05 21:02:12.910 ,1,0,0.,4.8,2.,4.8,0.,4.8,0.,4.8
1979-08-05 21:02:17.710 ,1,0,0.,4.8,3.,4.8,0.,4.8,0.,4.8
1979-08-05 21:02:22.510 ,2,0,0.,4.8,2.,4.8,0.,4.8,0.,4.8
1979-08-05 21:02:27.310 ,2,0,0.,4.8,0.,4.8,0.,4.8,0.,4.8
1979-08-05 21:02:32.110 ,2,0,0.,4.8,2.,4.8,5.,4.8,2.,4.8
1979-08-05 21:02:36.910 ,2,0,0.,4.8,6.,4.8,2.,4.8,0.,4.8
1979-08-05 21:02:41.710 ,2,0,0.,4.8,5.,4.8,1.,4.8,1.,4.8
1979-08-05 21:02:46.510 ,2,0,0.,4.8,4.,4.8,1.,4.8,1.,4.8
1979-08-05 21:02:51.310 ,2,0,0.,4.8,3.,4.8,1.,4.8,0.,4.8
1979-08-05 21:02:56.110 ,2,0,0.,4.8,2.,4.8,1.,4.8,0.,4.8
1979-08-05 21:03:00.910 ,2,0,,0,,0,,0,,0
1979-08-05 21:03:05.710 ,2,0,0.,4.8,0.,4.8,1.,4.8,1.,4.8
1979-08-05 21:03:10.510 ,3,0,0.,4.8,1.,4.8,2.,4.8,1.,4.8
1979-08-05 21:03:15.310 ,3,0,0.,4.8,5.,4.8,1.,4.8,0.,4.8
1979-08-05 21:03:20.110 ,3,0,0.,4.8,3.,4.8,1.,4.8,0.,4.8
1979-08-05 21:03:24.910 ,3,0,0.,4.8,2.,4.8,2.,4.8,1.,4.8
1979-08-05 21:03:29.710 ,3,0,0.,4.8,1.,4.8,0.,4.8,1.,4.8
1979-08-05 21:03:34.510 ,3,0,0.,4.8,2.,4.8,2.,4.8,2.,4.8
1979-08-05 21:03:39.310 ,3,0,0.,4.8,2.,4.8,1.,4.8,2.,4.8
1979-08-05 21:03:44.110 ,3,0,0.,4.8,2.,4.8,2.,4.8,1.,4.8
1979-08-05 21:03:48.910 ,3,0,0.,4.8,2.,4.8,0.,4.8,2.,4.8
1979-08-05 21:03:53.710 ,3,0,0.,4.8,2.,4.8,1.,4.8,0.,4.8
1979-08-05 21:03:58.510 ,4,0,0.,4.8,4.,4.8,1.,4.8,0.,4.8
1979-08-05 21:04:03.310 ,4,0,0.,4.8,3.,4.8,3.,4.8,0.,4.8
1979-08-05 21:04:08.110 ,4,0,0.,4.8,4.,4.8,0.,4.8,0.,4.8
1979-08-05 21:04:12.910 ,4,0,0.,4.8,2.,4.8,1.,4.8,0.,4.8
1979-08-05 21:04:17.710 ,4,0,0.,4.8,4.,4.8,1.,4.8,1.,4.8
1979-08-05 21:04:22.510 ,4,0,0.,4.8,1.,4.8,2.,4.8,1.,4.8
1979-08-05 21:04:27.310 ,4,0,0.,4.8,2.,4.8,1.,4.8,2.,4.8
1979-08-05 21:04:32.110 ,4,0,0.,4.8,3.,4.8,0.,4.8,0.,4.8
1979-08-05 21:04:36.910 ,4,0,0.,4.8,5.,4.8,4.,4.8,1.,4.8
1979-08-05 21:04:41.710 ,4,0,0.,4.8,1.,4.8,5.,4.8,1.,4.8
1979-08-05 21:04:46.510 ,5,0,0.,4.8,1.,4.8,0.,4.8,3.,4.8
1979-08-05 21:04:51.310 ,5,0,0.,4.8,3.,4.8,3.,4.8,1.,4.8
1979-08-05 21:04:56.110 ,5,0,0.,4.8,2.,4.8,1.,4.8,2.,4.8
1979-08-05 21:05:00.910 ,5,0,0.,4.8,7.,4.8,3.,4.8,0.,4.8
1979-08-05 21:05:05.710 ,5,0,0.,4.8,2.,4.8,0.,4.8,0.,4.8
1979-08-05 21:05:10.510 ,5,0,0.,4.8,3.,4.8,0.,4.8,1.,4.8
1979-08-05 21:05:15.310 ,5,0,0.,4.8,4.,4.8,1.,4.8,0.,4.8
1979-08-05 21:05:20.110 ,5,0,0.,4.8,5.,4.8,0.,4.8,1.,4.8
1979-08-05 21:05:24.910 ,5,0,0.,4.8,2.,4.8,2.,4.8,2.,4.8
1979-08-05 21:05:29.710 ,5,0,0.,4.8,6.,4.8,1.,4.8,1.,4.8
1979-08-05 21:05:34.510 ,6,0,0.,4.8,2.,4.8,0.,4.8,1.,4.8
1979-08-05 21:05:39.310 ,6,0,0.,4.8,1.,4.8,3.,4.8,1.,4.8
1979-08-05 21:05:44.110 ,6,0,0.,4.8,3.,4.8,3.,4.8,0.,4.8
1979-08-05 21:05:48.910 ,6,0,0.,4.8,0.,4.8,2.,4.8,1.,4.8
1979-08-05 21:05:53.710 ,6,0,0.,4.8,4.,4.8,0.,4.8,2.,4.8
1979-08-05 21:05:58.510 ,6,0,0.,4.8,3.,4.8,9.,4.8,0.,4.8
1979-08-05 21:06:03.310 ,6,0,0.,4.8,1.,4.8,3.,4.8,1.,4.8
1979-08-05 21:06:08.110 ,6,0,0.,4.8,4.,4.8,1.,4.8,0.,4.8
1979-08-05 21:06:12.910 ,6,0,0.,4.8,3.,4.8,0.,4.8,0.,4.8
1979-08-05 21:06:17.710 ,6,0,0.,4.8,5.,4.8,1.,4.8,2.,4.8
1979-08-05 21:06:22.510 ,7,0,0.,4.8,2.,4.8,1.,4.8,1.,4.8
1979-08-05 21:06:27.310 ,7,0,0.,4.8,4.,4.8,2.,4.8,1.,4.8
1979-08-05 21:06:32.110 ,7,0,0.,4.8,0.,4.8,0.,4.8,1.,4.8
1979-08-05 21:06:36.910 ,7,0,0.,4.8,1.,4.8,1.,4.8,0.,4.8
1979-08-05 21:06:41.710 ,7,0,0.,4.8,1.,4.8,0.,4.8,1.,4.8
1979-08-05 21:06:46.510 ,7,0,0.,4.8,1.,4.8,0.,4.8,0.,4.8
1979-08-05 21:06:51.310 ,7,0,0.,4.8,4.,4.8,0.,4.8,0.,4.8
1979-08-05 21:06:56.110 ,7,0,0.,4.8,1.,4.8,0.,4.8,0.,4.8
1979-08-05 21:07:00.910 ,7,0,0.,4.8,2.,4.8,0.,4.8,0.,4.8
1979-08-05 21:07:05.710 ,7,0,0.,4.8,1.,4.8,0.,4.8,0.,4.8
1979-08-05 21:07:10.510 ,3,1,0.,4.8,1.,4.8,1.,4.8,0.,4.8
1979-08-05 21:07:15.310 ,3,1,0.,4.8,4.,4.8,1.,4.8,1.,4.8
1979-08-05 21:07:20.110 ,3,1,0.,4.8,3.,4.8,1.,4.8,0.,4.8
1979-08-05 21:07:24.910 ,3,1,0.,4.8,5.,4.8,2.,4.8,0.,4.8
1979-08-05 21:07:29.710 ,3,1,0.,4.8,2.,4.8,1.,4.8,0.,4.8
1979-08-05 21:07:34.510 ,0,1,0.,4.8,1.,4.8,3.,4.8,0.,4.8
1979-08-05 21:07:39.310 ,0,1,0.,4.8,4.,4.8,1.,4.8,3.,4.8
1979-08-05 21:07:44.110 ,0,1,0.,4.8,2.,4.8,0.,4.8,1.,4.8
1979-08-05 21:07:48.910 ,0,1,0.,4.8,5.,4.8,1.,4.8,0.,4.8
1979-08-05 21:07:53.710 ,0,1,0.,4.8,1.,4.8,0.,4.8,0.,4.8
1979-08-05 21:07:58.510 ,4,1,0.,4.8,1.,4.8,0.,4.8,0.,4.8
1979-08-05 21:08:03.310 ,4,1,0.,4.8,8.,4.8,2.,4.8,2.,4.8
1979-08-05 21:08:08.110 ,4,1,0.,4.8,5.,4.8,2.,4.8,0.,4.8
1979-08-05 21:08:12.910 ,4,1,0.,4.8,3.,4.8,0.,4.8,0.,4.8
1979-08-05 21:08:17.710 ,4,1,0.,4.8,1.,4.8,3.,4.8,1.,4.8
1979-08-05 21:08:22.510 ,7,1,0.,4.8,3.,4.8,0.,4.8,3.,4.8
1979-08-05 21:08:27.310 ,7,1,0.,4.8,4.,4.8,4.,4.8,1.,4.8
1979-08-05 21:08:32.110 ,7,1,0.,4.8,2.,4.8,2.,4.8,2.,4.8
1979-08-05 21:08:36.910 ,7,1,0.,4.8,1.,4.8,0.,4.8,0.,4.8
1979-08-05 21:08:41.710 ,7,1,0.,4.8,0.,4.8,0.,4.8,1.,4.8
1979-08-05 21:08:46.510 ,3,1,0.,4.8,1.,4.8,0.,4.8,0.,4.8
1979-08-05 21:08:51.310 ,3,1,0.,4.8,1.,4.8,2.,4.8,0.,4.8
1979-08-05 21:08:56.110 ,3,1,0.,4.8,2.,4.8,4.,4.8,0.,4.8
1979-08-05 21:09:00.910 ,3,1,0.,4.8,4.,4.8,0.,4.8,1.,4.8
1979-08-05 21:09:05.710 ,3,1,0.,4.8,0.,4.8,2.,4.8,2.,4.8
1979-08-05 21:09:10.510 ,0,1,0.,4.8,2.,4.8,0.,4.8,0.,4.8
1979-08-05 21:09:15.310 ,0,1,0.,4.8,3.,4.8,1.,4.8,2.,4.8
1979-08-05 21:09:20.110 ,0,1,0.,4.8,0.,4.8,1.,4.8,0.,4.8
1979-08-05 21:09:24.910 ,0,1,0.,4.8,2.,4.8,0.,4.8,1.,4.8
1979-08-05 21:09:29.710 ,0,1,0.,4.8,2.,4.8,0.,4.8,1.,4.8
1979-08-05 21:09:34.510 ,4,1,0.,4.8,5.,4.8,1.,4.8,0.,4.8
1979-08-05 21:09:39.310 ,4,1,0.,4.8,0.,4.8,0.,4.8,0.,4.8
1979-08-05 21:09:44.110 ,4,1,0.,4.8,1.,4.8,1.,4.8,1.,4.8
1979-08-05 21:09:48.910 ,4,1,0.,4.8,3.,4.8,4.,4.8,0.,4.8
1979-08-05 21:09:53.710 ,4,1,0.,4.8,0.,4.8,1.,4.8,0.,4.8
1979-08-05 21:09:58.510 ,7,1,0.,4.8,2.,4.8,1.,4.8,2.,4.8
1979-08-05 21:10:03.310 ,7,1,0.,4.8,1.,4.8,0.,4.8,1.,4.8
1979-08-05 21:10:08.110 ,7,1,0.,4.8,6.,4.8,3.,4.8,0.,4.8
1979-08-05 21:10:12.910 ,7,1,0.,4.8,2.,4.8,1.,4.8,0.,4.8
1979-08-05 21:10:17.710 ,7,1,0.,4.8,0.,4.8,0.,4.8,0.,4.8
1979-08-05 21:10:22.510 ,3,1,0.,4.8,0.,4.8,0.,4.8,1.,4.8
1979-08-05 21:10:27.310 ,3,1,0.,4.8,2.,4.8,1.,4.8,1.,4.8
1979-08-05 21:10:32.110 ,3,1,0.,4.8,3.,4.8,2.,4.8,2.,4.8
1979-08-05 21:10:36.910 ,3,1,0.,4.8,1.,4.8,1.,4.8,2.,4.8
1979-08-05 21:10:41.710 ,3,1,0.,4.8,2.,4.8,1.,4.8,2.,4.8
1979-08-05 21:10:46.510 ,0,1,0.,4.8,3.,4.8,3.,4.8,2.,4.8
1979-08-05 21:10:51.310 ,0,1,0.,4.8,5.,4.8,2.,4.8,1.,4.8
1979-08-05 21:10:56.110 ,0,1,0.,4.8,8.,4.8,0.,4.8,1.,4.8
1979-08-05 21:11:00.910 ,0,1,0.,4.8,1.,4.8,1.,4.8,0.,4.8
1979-08-05 21:11:05.710 ,0,1,0.,4.8,8.,4.8,3.,4.8,0.,4.8
1979-08-05 21:11:10.510 ,4,1,0.,4.8,3.,4.8,0.,4.8,2.,4.8
1979-08-05 21:11:15.310 ,4,1,0.,4.8,6.,4.8,2.,4.8,0.,4.8
1979-08-05 21:11:20.110 ,4,1,0.,4.8,1.,4.8,4.,4.8,1.,4.8
1979-08-05 21:11:24.910 ,4,1,0.,4.8,1.,4.8,2.,4.8,1.,4.8
1979-08-05 21:11:29.710 ,4,1,0.,4.8,3.,4.8,1.,4.8,0.,4.8
1979-08-05 21:11:34.510 ,7,1,0.,4.8,0.,4.8,0.,4.8,1.,4.8
1979-08-05 21:11:39.310 ,7,1,0.,4.8,0.,4.8,1.,4.8,1.,4.8
1979-08-05 21:11:44.110 ,7,1,0.,4.8,6.,4.8,0.,4.8,0.,4.8
1979-08-05 21:11:48.910 ,7,1,0.,4.8,2.,4.8,0.,4.8,3.,4.8
1979-08-05 21:11:53.710 ,7,1,,0,,0,,0,,0
1979-08-05 21:11:58.510 ,3,1,0.,4.8,1.,4.8,0.,4.8,0.,4.8
1979-08-05 21:12:03.310 ,3,1,0.,4.8,4.,4.8,2.,4.8,1.,4.8
1979-08-05 21:12:08.110 ,3,1,0.,4.8,4.,4.8,1.,4.8,2.,4.8
1979-08-05 21:12:12.910 ,3,1,0.,4.8,5.,4.8,2.,4.8,2.,4.8
1979-08-05 21:12:17.710 ,3,1,0.,4.8,2.,4.8,5.,4.8,0.,4.8
1979-08-05 21:12:22.510 ,0,1,0.,4.8,3.,4.8,1.,4.8,1.,4.8
1979-08-05 21:12:27.310 ,0,1,0.,4.8,2.,4.8,0.,4.8,2.,4.8
1979-08-05 21:12:32.110 ,0,1,0.,4.8,0.,4.8,1.,4.8,0.,4.8
1979-08-05 21:12:36.910 ,0,1,0.,4.8,2.,4.8,0.,4.8,0.,4.8
1979-08-05 21:12:41.710 ,0,1,0.,4.8,1.,4.8,1.,4.8,0.,4.8
1979-08-05 21:12:47.110 ,4,1,0.,4.8,0.,4.8,0.,4.8,0.,4.8
1979-08-05 21:12:51.910 ,4,1,0.,4.8,2.,4.8,1.,4.8,0.,4.8
1979-08-05 21:12:56.710 ,4,1,0.,4.8,5.,4.8,2.,4.8,1.,4.8
1979-08-05 21:13:01.510 ,4,1,0.,4.8,2.,4.8,2.,4.8,2.,4.8
1979-08-05 21:13:06.310 ,4,1,0.,4.8,4.,4.8,3.,4.8,2.,4.8
1979-08-05 21:13:10.510 ,7,1,0.,4.8,5.,4.8,1.,4.8,2.,4.8
1979-08-05 21:13:15.310 ,7,1,0.,4.8,4.,4.8,1.,4.8,0.,4.8
1979-08-05 21:13:20.110 ,7,1,0.,4.8,3.,4.8,1.,4.8,1.,4.8
1979-08-05 21:13:24.910 ,7,1,0.,4.8,2.,4.8,1.,4.8,0.,4.8
1979-08-05 21:13:29.710 ,7,1,0.,4.8,1.,4.8,1.,4.8,0.,4.8
1979-08-05 21:13:34.510 ,3,1,0.,4.8,0.,4.8,0.,4.8,0.,4.8
1979-08-05 21:13:39.310 ,3,1,0.,4.8,2.,4.8,3.,4.8,2.,4.8
1979-08-05 21:13:44.110 ,3,1,0.,4.8,4.,4.8,1.,4.8,0.,4.8
1979-08-05 21:13:48.910 ,3,1,0.,4.8,1.,4.8,1.,4.8,2.,4.8
1979-08-05 21:13:53.710 ,3,1,0.,4.8,1.,4.8,0.,4.8,1.,4.8
1979-08-05 21:13:58.510 ,0,1,0.,4.8,4.,4.8,1.,4.8,0.,4.8
1979-08-05 21:14:03.310 ,0,1,0.,4.8,2.,4.8,2.,4.8,1.,4.8
1979-08-05 21:14:08.110 ,0,1,0.,4.8,2.,4.8,1.,4.8,0.,4.8
1979-08-05 21:14:12.910 ,0,1,0.,4.8,3.,4.8,1.,4.8,0.,4.8
1979-08-05 21:14:17.710 ,0,1,0.,4.8,0.,4.8,0.,4.8,0.,4.8
1979-08-05 21:14:22.510 ,4,1,0.,4.8,2.,4.8,1.,4.8,0.,4.8
1979-08-05 21:14:27.310 ,4,1,0.,4.8,3.,4.8,1.,4.8,0.,4.8
1979-08-05 21:14:32.110 ,4,1,0.,4.8,2.,4.8,3.,4.8,1.,4.8
1979-08-05 21:14:36.910 ,4,1,0.,4.8,0.,4.8,2.,4.8,0.,4.8
1979-08-05 21:14:41.710 ,4,1,0.,4.8,1.,4.8,0.,4.8,1.,4.8
1979-08-05 21:14:46.510 ,7,1,0.,4.8,3.,4.8,3.,4.8,3.,4.8
1979-08-05 21:14:51.310 ,7,1,0.,4.8,2.,4.8,2.,4.8,0.,4.8
1979-08-05 21:14:56.110 ,7,1,0.,4.8,1.,4.8,1.,4.8,0.,4.8
1979-08-05 21:15:00.910 ,7,1,0.,4.8,1.,4.8,0.,4.8,0.,4.8
1979-08-05 21:15:05.710 ,7,1,0.,4.8,0.,4.8,0.,4.8,0.,4.8
1979-08-05 21:15:10.510 ,3,1,0.,4.8,2.,4.8,1.,4.8,0.,4.8
1979-08-05 21:15:15.310 ,3,1,0.,4.8,2.,4.8,3.,4.8,1.,4.8
1979-08-05 21:15:20.110 ,3,1,0.,4.8,3.,4.8,0.,4.8,0.,4.8
1979-08-05 21:15:24.910 ,3,1,0.,4.8,1.,4.8,1.,4.8,0.,4.8
1979-08-05 21:15:29.710 ,3,1,0.,4.8,2.,4.8,3.,4.8,1.,4.8
1979-08-05 21:15:34.510 ,0,1,1.,4.8,4.,4.8,1.,4.8,2.,4.8
1979-08-05 21:15:39.310 ,0,1,0.,4.8,0.,4.8,0.,4.8,1.,4.8
1979-08-05 21:15:44.110 ,0,1,0.,4.8,3.,4.8,2.,4.8,0.,4.8
1979-08-05 21:15:48.910 ,0,1,0.,4.8,2.,4.8,0.,4.8,1.,4.8
1979-08-05 21:15:53.710 ,0,1,0.,4.8,3.,4.8,0.,4.8,1.,4.8
1979-08-05 21:15:58.510 ,4,1,0.,4.8,2.,4.8,0.,4.8,0.,4.8
1979-08-05 21:16:03.310 ,4,1,0.,4.8,6.,4.8,0.,4.8,1.,4.8
1979-08-05 21:16:08.110 ,4,1,0.,4.8,1.,4.8,3.,4.8,3.,4.8
1979-08-05 21:16:12.910 ,4,1,0.,4.8,2.,4.8,0.,4.8,2.,4.8
1979-08-05 21:16:17.710 ,4,1,0.,4.8,1.,4.8,0.,4.8,1.,4.8
1979-08-05 21:16:22.510 ,7,1,0.,4.8,5.,4.8,1.,4.8,3.,4.8
1979-08-05 21:16:27.310 ,7,1,0.,4.8,3.,4.8,1.,4.8,0.,4.8
1979-08-05 21:16:32.110 ,7,1,0.,4.8,0.,4.8,2.,4.8,0.,4.8
1979-08-05 21:16:36.910 ,7,1,0.,4.8,0.,4.8,0.,4.8,0.,4.8
1979-08-05 21:16:41.710 ,7,1,,0,,0,,0,,0
1979-08-05 21:16:46.510 ,3,1,0.,4.8,1.,4.8,0.,4.8,0.,4.8
1979-08-05 21:16:51.310 ,3,1,0.,4.8,3.,4.8,2.,4.8,1.,4.8
1979-08-05 21:16:56.110 ,3,1,0.,4.8,2.,4.8,0.,4.8,0.,4.8
1979-08-05 21:17:00.910 ,3,1,0.,4.8,1.,4.8,0.,4.8,0.,4.8
1979-08-05 21:17:05.710 ,3,1,0.,4.8,4.,4.8,2.,4.8,0.,4.8
1979-08-05 21:17:10.510 ,0,1,0.,4.8,3.,4.8,3.,4.8,1.,4.8
1979-08-05 21:17:15.310 ,0,1,0.,4.8,6.,4.8,1.,4.8,1.,4.8
1979-08-05 21:17:20.110 ,0,1,0.,4.8,3.,4.8,0.,4.8,0.,4.8
1979-08-05 21:17:24.910 ,0,1,0.,4.8,1.,4.8,0.,4.8,0.,4.8
1979-08-05 21:17:29.710 ,0,1,0.,4.8,4.,4.8,0.,4.8,1.,4.8
1979-08-05 21:17:34.510 ,0,0,0.,4.8,3.,4.8,1.,4.8,0.,4.8
1979-08-05 21:17:39.310 ,0,0,0.,4.8,2.,4.8,3.,4.8,0.,4.8
1979-08-05 21:17:44.110 ,0,0,0.,4.8,2.,4.8,1.,4.8,0.,4.8
1979-08-05 21:17:48.910 ,0,0,0.,4.8,3.,4.8,1.,4.8,2.,4.8
1979-08-05 21:17:53.710 ,0,0,0.,4.8,4.,4.8,1.,4.8,4.,4.8
1979-08-05 21:17:58.510 ,0,0,0.,4.8,1.,4.8,2.,4.8,0.,4.8
1979-08-05 21:18:03.310 ,0,0,0.,4.8,2.,4.8,2.,4.8,0.,4.8
1979-08-05 21:18:08.110 ,0,0,0.,4.8,1.,4.8,4.,4.8,0.,4.8
1979-08-05 21:18:12.910 ,0,0,0.,4.8,2.,4.8,0.,4.8,1.,4.8
1979-08-05 21:18:17.710 ,0,0,0.,4.8,2.,4.8,0.,4.8,0.,4.8
1979-08-05 21:18:22.510 ,5,0,0.,4.8,2.,4.8,0.,4.8,0.,4.8
1979-08-05 21:18:27.310 ,5,0,0.,4.8,3.,4.8,2.,4.8,1.,4.8
1979-08-05 21:18:32.110 ,5,0,0.,4.8,2.,4.8,3.,4.8,0.,4.8
1979-08-05 21:18:36.910 ,5,0,0.,4.8,6.,4.8,1.,4.8,1.,4.8
1979-08-05 21:18:41.710 ,5,0,0.,4.8,2.,4.8,0.,4.8,1.,4.8
1979-08-05 21:18:46.510 ,5,0,0.,4.8,0.,4.8,1.,4.8,1.,4.8
1979-08-05 21:18:51.310 ,5,0,0.,4.8,1.,4.8,2.,4.8,1.,4.8
1979-08-05 21:18:56.110 ,5,0,0.,4.8,2.,4.8,4.,4.8,1.,4.8
1979-08-05 21:19:00.910 ,5,0,0.,4.8,4.,4.8,1.,4.8,0.,4.8
1979-08-05 21:19:05.710 ,5,0,0.,4.8,3.,4.8,2.,4.8,2.,4.8
1979-08-05 21:19:10.510 ,4,0,0.,4.8,3.,4.8,2.,4.8,0.,4.8
1979-08-05 21:19:15.310 ,4,0,0.,4.8,5.,4.8,0.,4.8,1.,4.8
1979-08-05 21:19:20.110 ,4,0,0.,4.8,1.,4.8,0.,4.8,2.,4.8
1979-08-05 21:19:24.910 ,4,0,0.,4.8,2.,4.8,1.,4.8,1.,4.8
1979-08-05 21:19:29.710 ,4,0,0.,4.8,4.,4.8,0.,4.8,2.,4.8
1979-08-05 21:19:34.510 ,4,0,0.,4.8,3.,4.8,0.,4.8,2.,4.8
1979-08-05 21:19:39.310 ,4,0,0.,4.8,4.,4.8,1.,4.8,1.,4.8
1979-08-05 21:19:44.110 ,4,0,0.,4.8,5.,4.8,3.,4.8,0.,4.8
1979-08-05 21:19:48.910 ,4,0,0.,4.8,7.,4.8,2.,4.8,0.,4.8
1979-08-05 21:19:53.710 ,4,0,0.,4.8,9.,4.8,1.,4.8,1.,4.8
1979-08-05 21:19:58.510 ,3,0,0.,4.8,6.,4.8,1.,4.8,2.,4.8
1979-08-05 21:20:03.310 ,3,0,0.,4.8,3.,4.8,2.,4.8,2.,4.8
1979-08-05 21:20:08.110 ,3,0,0.,4.8,6.,4.8,1.,4.8,0.,4.8
1979-08-05 21:20:12.910 ,3,0,0.,4.8,0.,4.8,0.,4.8,2.,4.8
1979-08-05 21:20:17.710 ,3,0,0.,4.8,4.,4.8,1.,4.8,0.,4.8
1979-08-05 21:20:22.510 ,3,0,0.,4.8,1.,4.8,1.,4.8,2.,4.8
1979-08-05 21:20:27.310 ,3,0,0.,4.8,0.,4.8,0.,4.8,0.,4.8
1979-08-05 21:20:32.110 ,3,0,0.,4.8,4.,4.8,3.,4.8,0.,4.8
1979-08-05 21:20:36.910 ,3,0,0.,4.8,4.,4.8,2.,4.8,3.,4.8
1979-08-05 21:20:41.710 ,3,0,0.,4.8,3.,4.8,5.,4.8,1.,4.8
1979-08-05 21:20:46.510 ,2,0,0.,4.8,1.,4.8,1.,4.8,2.,4.8
1979-08-05 21:20:51.310 ,2,0,0.,4.8,2.,4.8,3.,4.8,1.,4.8
1979-08-05 21:20:56.110 ,2,0,0.,4.8,7.,4.8,1.,4.8,0.,4.8
1979-08-05 21:21:00.910 ,2,0,0.,4.8,2.,4.8,0.,4.8,0.,4.8
1979-08-05 21:21:05.710 ,2,0,0.,4.8,4.,4.8,0.,4.8,1.,4.8
1979-08-05 21:21:10.510 ,2,0,0.,4.8,2.,4.8,1.,4.8,1.,4.8
1979-08-05 21:21:15.310 ,2,0,0.,4.8,1.,4.8,2.,4.8,1.,4.8
1979-08-05 21:21:20.110 ,2,0,0.,4.8,3.,4.8,0.,4.8,1.,4.8
1979-08-05 21:21:24.910 ,2,0,0.,4.8,8.,4.8,2.,4.8,2.,4.8
1979-08-05 21:21:29.710 ,2,0,0.,4.8,1.,4.8,3.,4.8,3.,4.8
1979-08-05 21:21:34.510 ,1,0,0.,4.8,1.,4.8,2.,4.8,0.,4.8
1979-08-05 21:21:39.310 ,1,0,0.,4.8,3.,4.8,1.,4.8,2.,4.8
1979-08-05 21:21:44.110 ,1,0,0.,4.8,2.,4.8,2.,4.8,1.,4.8
1979-08-05 21:21:48.910 ,1,0,0.,4.8,1.,4.8,0.,4.8,0.,4.8
1979-08-05 21:21:53.710 ,1,0,0.,4.8,2.,4.8,2.,4.8,1.,4.8
1979-08-05 21:21:58.510 ,1,0,0.,4.8,4.,4.8,0.,4.8,0.,4.8
1979-08-05 21:22:03.310 ,1,0,0.,4.8,3.,4.8,2.,4.8,1.,4.8
1979-08-05 21:22:08.110 ,1,0,0.,4.8,1.,4.8,0.,4.8,0.,4.8
1979-08-05 21:22:12.910 ,1,0,0.,4.8,2.,4.8,0.,4.8,1.,4.8
1979-08-05 21:22:17.710 ,1,0,0.,4.8,1.,4.8,1.,4.8,1.,4.8
1979-08-05 21:22:22.510 ,0,0,0.,4.8,4.,4.8,0.,4.8,1.,4.8
1979-08-05 21:22:27.310 ,0,0,0.,4.8,1.,4.8,4.,4.8,0.,4.8
1979-08-05 21:22:32.110 ,0,0,0.,4.8,1.,4.8,1.,4.8,0.,4.8
1979-08-05 21:22:36.910 ,0,0,0.,4.8,2.,4.8,1.,4.8,0.,4.8
1979-08-05 21:22:41.710 ,0,0,0.,4.8,4.,4.8,0.,4.8,0.,4.8
1979-08-05 21:22:46.510 ,0,0,0.,4.8,2.,4.8,0.,4.8,1.,4.8
1979-08-05 21:22:51.310 ,0,0,0.,4.8,1.,4.8,1.,4.8,0.,4.8
1979-08-05 21:22:56.110 ,0,0,0.,4.8,1.,4.8,0.,4.8,0.,4.8
1979-08-05 21:23:00.910 ,0,0,,0,,0,,0,,0
1979-08-05 21:23:05.710 ,0,0,0.,4.8,3.,4.8,1.,4.8,1.,4.8
1979-08-05 21:23:10.510 ,0,0,0.,4.8,5.,4.8,0.,4.8,0.,4.8
1979-08-05 21:23:15.310 ,0,0,0.,4.8,1.,4.8,0.,4.8,0.,4.8
1979-08-05 21:23:20.110 ,0,0,0.,4.8,2.,4.8,0.,4.8,0.,4.8
1979-08-05 21:23:24.910 ,0,0,0.,4.8,3.,4.8,1.,4.8,0.,4.8
1979-08-05 21:23:29.710 ,0,0,0.,4.8,2.,4.8,1.,4.8,1.,4.8
1979-08-05 21:23:34.510 ,0,0,0.,4.8,3.,4.8,1.,4.8,0.,4.8
1979-08-05 21:23:39.310 ,0,0,0.,4.8,0.,4.8,1.,4.8,0.,4.8
1979-08-05 21:23:44.110 ,0,0,0.,4.8,2.,4.8,1.,4.8,0.,4.8
1979-08-05 21:23:48.910 ,0,0,0.,4.8,2.,4.8,0.,4.8,0.,4.8
1979-08-05 21:23:53.710 ,0,0,0.,4.8,1.,4.8,0.,4.8,0.,4.8
1979-08-05 21:23:58.510 ,1,0,0.,4.8,1.,4.8,0.,4.8,0.,4.8
1979-08-05 21:24:03.310 ,1,0,0.,4.8,2.,4.8,0.,4.8,0.,4.8
1979-08-05 21:24:08.110 ,1,0,0.,4.8,7.,4.8,1.,4.8,2.,4.8
1979-08-05 21:24:12.910 ,1,0,0.,4.8,2.,4.8,0.,4.8,0.,4.8
1979-08-05 21:24:17.710 ,1,0,0.,4.8,1.,4.8,1.,4.8,1.,4.8
1979-08-05 21:24:22.510 ,1,0,0.,4.8,2.,4.8,1.,4.8,0.,4.8
1979-08-05 21:24:27.310 ,1,0,0.,4.8,2.,4.8,0.,4.8,0.,4.8
1979-08-05 21:24:32.110 ,1,0,0.,4.8,1.,4.8,1.,4.8,0.,4.8
1979-08-05 21:24:36.910 ,1,0,0.,4.8,4.,4.8,1.,4.8,1.,4.8
1979-08-05 21:24:41.710 ,1,0,0.,4.8,1.,4.8,2.,4.8,0.,4.8
1979-08-05 21:24:46.510 ,2,0,0.,4.8,0.,4.8,1.,4.8,1.,4.8
1979-08-05 21:24:51.310 ,2,0,0.,4.8,2.,4.8,1.,4.8,0.,4.8
1979-08-05 21:24:56.110 ,2,0,0.,4.8,4.,4.8,2.,4.8,3.,4.8
1979-08-05 21:25:00.910 ,2,0,0.,4.8,6.,4.8,2.,4.8,0.,4.8
1979-08-05 21:25:05.710 ,2,0,0.,4.8,6.,4.8,1.,4.8,3.,4.8
1979-08-05 21:25:10.510 ,2,0,0.,4.8,1.,4.8,1.,4.8,1.,4.8
1979-08-05 21:25:15.310 ,2,0,0.,4.8,1.,4.8,0.,4.8,2.,4.8
1979-08-05 21:25:20.110 ,2,0,0.,4.8,4.,4.8,1.,4.8,0.,4.8
1979-08-05 21:25:24.910 ,2,0,0.,4.8,4.,4.8,1.,4.8,0.,4.8
1979-08-05 21:25:29.710 ,2,0,0.,4.8,3.,4.8,2.,4.8,1.,4.8
1979-08-05 21:25:34.510 ,3,0,,0,,0,,0,,0
1979-08-05 21:25:39.310 ,3,0,0.,4.8,0.,4.8,1.,4.8,1.,4.8
1979-08-05 21:25:44.110 ,3,0,0.,4.8,4.,4.8,1.,4.8,1.,4.8
1979-08-05 21:25:48.910 ,3,0,0.,4.8,3.,4.8,0.,4.8,0.,4.8
1979-08-05 21:25:53.710 ,3,0,0.,4.8,2.,4.8,3.,4.8,3.,4.8
1979-08-05 21:25:58.510 ,3,0,0.,4.8,2.,4.8,0.,4.8,1.,4.8
1979-08-05 21:26:03.310 ,3,0,0.,4.8,1.,4.8,0.,4.8,4.,4.8
1979-08-05 21:26:08.110 ,3,0,0.,4.8,4.,4.8,1.,4.8,2.,4.8
1979-08-05 21:26:12.910 ,3,0,0.,4.8,3.,4.8,2.,4.8,1.,4.8
1979-08-05 21:26:17.710 ,3,0,0.,4.8,1.,4.8,0.,4.8,2.,4.8
1979-08-05 21:26:22.510 ,4,0,0.,4.8,2.,4.8,1.,4.8,1.,4.8
1979-08-05 21:26:27.310 ,4,0,0.,4.8,6.,4.8,1.,4.8,2.,4.8
1979-08-05 21:26:32.110 ,4,0,0.,4.8,4.,4.8,0.,4.8,1.,4.8
1979-08-05 21:26:36.910 ,4,0,0.,4.8,3.,4.8,3.,4.8,1.,4.8
1979-08-05 21:26:41.710 ,4,0,0.,4.8,3.,4.8,0.,4.8,1.,4.8
1979-08-05 21:26:46.510 ,4,0,0.,4.8,2.,4.8,2.,4.8,1.,4.8
1979-08-05 21:26:51.310 ,4,0,0.,4.8,3.,4.8,0.,4.8,1.,4.8
1979-08-05 21:26:56.110 ,4,0,0.,4.8,0.,4.8,0.,4.8,3.,4.8
1979-08-05 21:27:00.910 ,4,0,0.,4.8,5.,4.8,2.,4.8,2.,4.8
1979-08-05 21:27:05.710 ,4,0,0.,4.8,4.,4.8,3.,4.8,0.,4.8
1979-08-05 21:27:10.510 ,5,0,0.,4.8,2.,4.8,1.,4.8,0.,4.8
1979-08-05 21:27:15.310 ,5,0,0.,4.8,2.,4.8,2.,4.8,2.,4.8
1979-08-05 21:27:20.110 ,5,0,0.,4.8,2.,4.8,1.,4.8,2.,4.8
1979-08-05 21:27:24.910 ,5,0,0.,4.8,7.,4.8,3.,4.8,1.,4.8
1979-08-05 21:27:29.710 ,5,0,0.,4.8,4.,4.8,1.,4.8,1.,4.8
1979-08-05 21:27:34.510 ,5,0,0.,4.8,1.,4.8,3.,4.8,0.,4.8
1979-08-05 21:27:39.310 ,5,0,0.,4.8,6.,4.8,3.,4.8,2.,4.8
1979-08-05 21:27:44.110 ,5,0,0.,4.8,4.,4.8,1.,4.8,2.,4.8
1979-08-05 21:27:48.910 ,5,0,0.,4.8,0.,4.8,1.,4.8,0.,4.8
1979-08-05 21:27:53.710 ,5,0,0.,4.8,2.,4.8,1.,4.8,2.,4.8
1979-08-05 21:27:58.510 ,6,0,0.,4.8,5.,4.8,1.,4.8,0.,4.8
1979-08-05 21:28:03.310 ,6,0,0.,4.8,1.,4.8,1.,4.8,1.,4.8
1979-08-05 21:28:08.110 ,6,0,0.,4.8,2.,4.8,0.,4.8,0.,4.8
1979-08-05 21:28:12.910 ,6,0,0.,4.8,11.,4.8,3.,4.8,0.,4.8
1979-08-05 21:28:17.710 ,6,0,0.,4.8,3.,4.8,0.,4.8,1.,4.8
1979-08-05 21:28:22.510 ,0,0,0.,4.8,5.,4.8,2.,4.8,2.,4.8
1979-08-05 21:28:27.310 ,0,0,0.,4.8,0.,4.8,1.,4.8,1.,4.8
1979-08-05 21:28:32.110 ,0,0,0.,4.8,3.,4.8,2.,4.8,1.,4.8
1979-08-05 21:28:36.910 ,0,0,0.,4.8,1.,4.8,3.,4.8,0.,4.8
1979-08-05 21:28:41.710 ,0,0,0.,4.8,5.,4.8,0.,4.8,0.,4.8
1979-08-05 21:28:46.510 ,7,0,0.,4.8,1.,4.8,1.,4.8,1.,4.8
1979-08-05 21:28:51.310 ,7,0,0.,4.8,2.,4.8,2.,4.8,0.,4.8
1979-08-05 21:28:56.110 ,7,0,0.,4.8,3.,4.8,0.,4.8,0.,4.8
1979-08-05 21:29:00.910 ,7,0,0.,4.8,2.,4.8,1.,4.8,0.,4.8
1979-08-05 21:29:05.710 ,7,0,0.,4.8,0.,4.8,0.,4.8,0.,4.8
1979-08-05 21:29:10.510 ,7,0,0.,4.8,0.,4.8,1.,4.8,0.,4.8
1979-08-05 21:29:15.310 ,7,0,0.,4.8,3.,4.8,0.,4.8,0.,4.8
1979-08-05 21:29:20.110 ,7,0,0.,4.8,2.,4.8,0.,4.8,0.,4.8
1979-08-05 21:29:24.910 ,7,0,0.,4.8,0.,4.8,0.,4.8,0.,4.8
1979-08-05 21:29:29.710 ,7,0,0.,4.8,1.,4.8,0.,4.8,0.,4.8
1979-08-05 21:29:34.510 ,7,0,0.,4.8,0.,4.8,0.,4.8,0.,4.8
1979-08-05 21:29:39.310 ,7,0,0.,4.8,1.,4.8,0.,4.8,0.,4.8
1979-08-05 21:29:44.110 ,7,0,0.,4.8,0.,4.8,0.,4.8,0.,4.8
1979-08-05 21:29:48.910 ,7,0,0.,4.8,1.,4.8,0.,4.8,0.,4.8
1979-08-05 21:29:53.710 ,7,0,0.,4.8,1.,4.8,0.,4.8,0.,4.8
1979-08-05 21:29:58.510 ,7,0,0.,4.8,0.,4.8,0.,4.8,0.,4.8
1979-08-05 21:30:03.310 ,7,0,0.,4.8,1.,4.8,0.,4.8,0.,4.8
1979-08-05 21:30:08.110 ,7,0,0.,4.8,1.,4.8,0.,4.8,0.,4.8
1979-08-05 21:30:12.910 ,7,0,0.,4.8,0.,4.8,0.,4.8,0.,4.8
1979-08-05 21:30:17.710 ,7,0,0.,4.8,1.,4.8,0.,4.8,0.,4.8
1979-08-05 21:30:22.510 ,6,0,0.,4.8,3.,4.8,0.,4.8,0.,4.8
1979-08-05 21:30:27.310 ,6,0,0.,4.8,2.,4.8,0.,4.8,0.,4.8
1979-08-05 21:30:32.110 ,6,0,0.,4.8,8.,4.8,4.,4.8,2.,4.8
1979-08-05 21:30:36.910 ,6,0,0.,4.8,2.,4.8,0.,4.8,0.,4.8
1979-08-05 21:30:41.710 ,6,0,0.,4.8,3.,4.8,2.,4.8,1.,4.8
1979-08-05 21:30:46.510 ,6,0,0.,4.8,1.,4.8,0.,4.8,0.,4.8
1979-08-05 21:30:51.310 ,6,0,0.,4.8,5.,4.8,2.,4.8,0.,4.8
1979-08-05 21:30:56.110 ,6,0,0.,4.8,3.,4.8,1.,4.8,1.,4.8
1979-08-05 21:31:00.910 ,6,0,0.,4.8,2.,4.8,1.,4.8,2.,4.8
1979-08-05 21:31:05.710 ,6,0,0.,4.8,4.,4.8,1.,4.8,3.,4.8
1979-08-05 21:31:10.510 ,5,0,0.,4.8,2.,4.8,0.,4.8,2.,4.8
1979-08-05 21:31:15.310 ,5,0,0.,4.8,4.,4.8,2.,4.8,1.,4.8
1979-08-05 21:31:20.110 ,5,0,0.,4.8,6.,4.8,0.,4.8,0.,4.8
1979-08-05 21:31:24.910 ,5,0,0.,4.8,4.,4.8,0.,4.8,1.,4.8
1979-08-05 21:31:29.710 ,5,0,0.,4.8,0.,4.8,2.,4.8,0.,4.8
1979-08-05 21:31:34.510 ,5,0,0.,4.8,5.,4.8,3.,4.8,0.,4.8
1979-08-05 21:31:39.310 ,5,0,0.,4.8,1.,4.8,2.,4.8,4.,4.8
1979-08-05 21:31:44.110 ,5,0,0.,4.8,2.,4.8,1.,4.8,2.,4.8
1979-08-05 21:31:48.910 ,5,0,0.,4.8,1.,4.8,2.,4.8,0.,4.8
1979-08-05 21:31:53.710 ,5,0,0.,4.8,2.,4.8,0.,4.8,1.,4.8
1979-08-05 21:31:58.510 ,4,0,0.,4.8,3.,4.8,4.,4.8,1.,4.8
1979-08-05 21:32:03.310 ,4,0,0.,4.8,5.,4.8,4.,4.8,2.,4.8
1979-08-05 21:32:08.110 ,4,0,0.,4.8,7.,4.8,0.,4.8,1.,4.8
1979-08-05 21:32:12.910 ,4,0,0.,4.8,0.,4.8,2.,4.8,0.,4.8
1979-08-05 21:32:17.710 ,4,0,0.,4.8,2.,4.8,1.,4.8,3.,4.8
1979-08-05 21:32:22.510 ,4,0,0.,4.8,2.,4.8,2.,4.8,0.,4.8
1979-08-05 21:32:27.310 ,4,0,0.,4.8,1.,4.8,0.,4.8,1.,4.8
1979-08-05 21:32:32.110 ,4,0,0.,4.8,0.,4.8,2.,4.8,0.,4.8
1979-08-05 21:32:36.910 ,4,0,0.,4.8,1.,4.8,6.,4.8,1.,4.8
1979-08-05 21:32:41.710 ,4,0,0.,4.8,4.,4.8,1.,4.8,0.,4.8
1979-08-05 21:32:46.510 ,3,0,0.,4.8,5.,4.8,0.,4.8,2.,4.8
1979-08-05 21:32:51.310 ,3,0,0.,4.8,3.,4.8,1.,4.8,2.,4.8
1979-08-05 21:32:56.110 ,3,0,0.,4.8,3.,4.8,3.,4.8,1.,4.8
1979-08-05 21:33:00.910 ,3,0,0.,4.8,3.,4.8,2.,4.8,0.,4.8
1979-08-05 21:33:05.710 ,3,0,0.,4.8,5.,4.8,1.,4.8,0.,4.8
1979-08-05 21:33:10.510 ,3,0,0.,4.8,2.,4.8,2.,4.8,0.,4.8
1979-08-05 21:33:15.310 ,3,0,0.,4.8,5.,4.8,1.,4.8,1.,4.8
1979-08-05 21:33:20.110 ,3,0,0.,4.8,1.,4.8,0.,4.8,1.,4.8